Zapata, TX

5:47 AM CST on December 05, 2016 (GMT -0600)
Zapata

Weather History for KAPY - April, 2013

Change the Weather History Date:

Saturday, April 6, 2013

  Actual Average (KLRD) Record (KLRD)
Temperature  
Mean Temperature 74 °F 74 °F  
Max Temperature 88 °F 86 °F 105 °F (1911)
Min Temperature 61 °F 62 °F 35 °F (1920)
Degree Days  
Heating Degree Days 0 1  
Month to date heating degree days 6  
Since 1 July heating degree days 919  
Cooling Degree Days 10 10  
Month to date cooling degree days 55  
Year to date cooling degree days 313  
Growing Degree Days 24 (Base 50)    
Moisture  
Dew Point 54 °F    
Average Humidity 54    
Maximum Humidity 75    
Minimum Humidity 27    
Precipitation  
Precipitation 0.00 in 0.04 in 1.95 in (1900)
Month to date precipitation 0.20  
Year to date precipitation 3.16  
Sea Level Pressure  
Sea Level Pressure 29.93 in    
Wind  
Wind Speed 10 mph (SE)    
Max Wind Speed 20 mph    
Max Gust Speed 28 mph    
Visibility 10 miles    
Events      
T = Trace of Precipitation, MM = Missing Value Source: NWS Daily Summary

Daily Weather History Graph

Daily Weather History Graph

Search for Another Location

Airport or City:

Trip Planner

Search our weather history database for the weather conditions in past years. The results will help you decide how hot, cold, wet, or windy it might be!

Date:

Astronomy

Apr. 06, 2013 Rise Set
Actual Time 7:22 AM CDT 7:56 PM CDT
Civil Twilight 6:58 AM CDT 8:20 PM CDT
Nautical Twilight 6:30 AM CDT 8:48 PM CDT
Astronomical Twilight 6:03 AM CDT 9:16 PM CDT
Moon 4:47 AM CDT (4/6) 4:44 PM CDT (4/6)
Length of Visible Light 13h 21m
Length of Day
12h 34m
Waning Crescent, 15% of the Moon is Illuminated
Apr 6
Waning Crescent
Apr 10
New
Apr 18
First Quarter
Apr 25
Full
May 2
Last Quarter

Hourly Weather History & Observations

Time (CDT) Temp. Heat Index Dew Point Humidity Pressure Visibility Wind Dir Wind Speed Gust Speed Precip Events Conditions
12:15 AM 63.9 °F - 46.6 °F 53% 30.06 in 10.0 mi ESE 9.2 mph 16.1 mph N/A   Clear
12:35 AM 63.5 °F - 46.4 °F 54% 30.06 in 10.0 mi SE 10.4 mph 16.1 mph N/A   Clear
12:55 AM 63.1 °F - 47.3 °F 56% 30.05 in 10.0 mi SE 10.4 mph - N/A   Clear
1:15 AM 62.8 °F - 48.2 °F 59% 30.06 in 10.0 mi SE 8.1 mph - N/A   Clear
1:35 AM 62.6 °F - 49.1 °F 61% 30.05 in 10.0 mi SE 6.9 mph - N/A   Clear
1:55 AM 62.1 °F - 49.5 °F 63% 30.04 in 10.0 mi SE 8.1 mph - N/A   Clear
2:15 AM 61.9 °F - 50.2 °F 65% 30.04 in 10.0 mi SE 6.9 mph - N/A   Scattered Clouds
2:35 AM 61.7 °F - 50.9 °F 68% 30.02 in 10.0 mi SE 8.1 mph - N/A   Scattered Clouds
2:55 AM 61.7 °F - 51.4 °F 69% 30.02 in 10.0 mi SE 6.9 mph - N/A   Clear
3:15 AM 61.2 °F - 52.0 °F 72% 30.00 in 10.0 mi ESE 5.8 mph - N/A   Clear
3:35 AM 61.3 °F - 52.3 °F 72% 30.00 in 10.0 mi SE 8.1 mph - N/A   Mostly Cloudy
3:55 AM 61.3 °F - 52.7 °F 73% 29.99 in 10.0 mi ESE 8.1 mph - N/A   Scattered Clouds
4:15 AM 61.2 °F - 52.9 °F 74% 29.97 in 10.0 mi ESE 10.4 mph - N/A   Clear
4:35 AM 61.3 °F - 53.2 °F 75% 29.97 in 10.0 mi ESE 10.4 mph - N/A   Scattered Clouds
4:55 AM 61.7 °F - 53.6 °F 75% 29.98 in 10.0 mi ESE 5.8 mph - N/A   Overcast
5:15 AM 61.7 °F - 53.6 °F 75% 29.97 in 10.0 mi ESE 9.2 mph - N/A   Scattered Clouds
5:35 AM 62.1 °F - 54.0 °F 75% 29.97 in 10.0 mi SE 9.2 mph - N/A   Scattered Clouds
5:55 AM 61.9 °F - 53.8 °F 75% 29.91 in 10.0 mi ESE 17.3 mph 25.3 mph N/A   Scattered Clouds
6:15 AM 62.1 °F - 54.1 °F 75% 29.94 in 10.0 mi ESE 6.9 mph 23.0 mph N/A   Scattered Clouds
6:35 AM 62.6 °F - 54.5 °F 75% 29.96 in 10.0 mi East 4.6 mph - N/A   Mostly Cloudy
6:55 AM 63.0 °F - 54.9 °F 75% 29.96 in 10.0 mi ESE 6.9 mph - N/A   Overcast
7:15 AM 63.5 °F - 55.2 °F 74% 29.95 in 10.0 mi SE 9.2 mph - N/A   Mostly Cloudy
7:35 AM 64.4 °F - 55.8 °F 73% 29.96 in 10.0 mi SE 10.4 mph 16.1 mph N/A   Mostly Cloudy
7:55 AM 65.3 °F - 56.1 °F 72% 29.98 in 10.0 mi SE 5.8 mph - N/A   Overcast
8:15 AM 65.7 °F - 56.3 °F 72% 29.99 in 10.0 mi SE 8.1 mph - N/A   Overcast
8:35 AM 65.7 °F - 56.3 °F 72% 30.00 in 10.0 mi SE 5.8 mph - N/A   Overcast
8:55 AM 65.8 °F - 56.3 °F 71% 30.00 in 10.0 mi SE 4.6 mph - N/A   Overcast
9:15 AM 66.2 °F - 56.3 °F 70% 30.01 in 10.0 mi SE 6.9 mph - N/A   Overcast
9:35 AM 67.1 °F - 56.3 °F 68% 30.01 in 10.0 mi SE 8.1 mph - N/A   Overcast
9:55 AM 67.3 °F - 56.3 °F 68% 30.01 in 10.0 mi SSE 6.9 mph - N/A   Overcast
10:15 AM 68.0 °F - 56.5 °F 67% 29.99 in 10.0 mi SE 11.5 mph - N/A   Overcast
10:35 AM 68.2 °F - 56.3 °F 66% 29.97 in 10.0 mi SE 19.6 mph 24.2 mph N/A   Mostly Cloudy
10:55 AM 69.8 °F - 56.8 °F 63% 29.99 in 10.0 mi SSE 13.8 mph 27.6 mph N/A   Scattered Clouds
11:15 AM 72.3 °F - 56.3 °F 57% 29.98 in 10.0 mi SSE 12.7 mph 20.7 mph N/A   Mostly Cloudy
11:35 AM 74.8 °F - 56.1 °F 52% 29.99 in 10.0 mi SSE 11.5 mph 20.7 mph N/A   Mostly Cloudy
11:55 AM 74.1 °F - 55.9 °F 53% 29.98 in 10.0 mi SSE 13.8 mph 24.2 mph N/A   Overcast
12:15 PM 76.6 °F - 55.4 °F 48% 29.97 in 10.0 mi SSE 12.7 mph 19.6 mph N/A   Overcast
12:35 PM 78.1 °F - 55.2 °F 45% 29.97 in 10.0 mi SSE 11.5 mph 19.6 mph N/A   Mostly Cloudy
12:55 PM 77.9 °F - 55.0 °F 45% 29.95 in 10.0 mi SSE 15.0 mph 23.0 mph N/A   Mostly Cloudy
1:15 PM 79.3 °F - 54.9 °F 43% 29.95 in 10.0 mi SE 8.1 mph 19.6 mph N/A   Scattered Clouds
1:35 PM 81.0 °F 80.6 °F 54.3 °F 40% 29.93 in 10.0 mi South 13.8 mph 20.7 mph N/A   Scattered Clouds
1:55 PM 81.0 °F 80.5 °F 54.1 °F 39% 29.92 in 10.0 mi South 9.2 mph 21.9 mph N/A   Clear
2:15 PM 83.5 °F 82.2 °F 53.6 °F 36% 29.91 in 10.0 mi SE 12.7 mph 21.9 mph N/A   Clear
2:35 PM 82.8 °F 81.6 °F 53.6 °F 36% 29.89 in 10.0 mi SSE 11.5 mph 18.4 mph N/A   Clear
2:55 PM 84.4 °F - 52.7 °F 33% 29.88 in 10.0 mi South 8.1 mph 16.1 mph N/A   Clear
3:15 PM 85.1 °F - 52.0 °F 32% 29.86 in 10.0 mi ESE 12.7 mph 16.1 mph N/A   Clear
3:35 PM 85.3 °F - 52.0 °F 32% 29.85 in 10.0 mi SE 15.0 mph 18.4 mph N/A   Clear
3:55 PM 86.9 °F - 52.0 °F 30% 29.84 in 10.0 mi SE 11.5 mph 17.3 mph N/A   Clear
4:15 PM 87.8 °F - 51.3 °F 28% 29.83 in 10.0 mi SSE 6.9 mph 17.3 mph N/A   Clear
4:35 PM 87.8 °F - 51.4 °F 29% 29.82 in 10.0 mi SE 10.4 mph - N/A   Clear
4:55 PM 88.9 °F - 50.4 °F 27% 29.81 in 10.0 mi SE 12.7 mph 16.1 mph N/A   Clear
5:15 PM 88.7 °F - 50.7 °F 27% 29.81 in 10.0 mi SE 9.2 mph 16.1 mph N/A   Clear
5:35 PM 88.9 °F - 50.9 °F 27% 29.80 in 10.0 mi SSE 6.9 mph 19.6 mph N/A   Clear
5:55 PM 88.0 °F - 50.9 °F 28% 29.80 in 10.0 mi SE 6.9 mph 17.3 mph N/A   Clear
6:15 PM 88.2 °F - 50.9 °F 28% 29.80 in 10.0 mi SE 9.2 mph - N/A   Clear
6:35 PM 87.3 °F - 50.9 °F 29% 29.80 in 10.0 mi SE 10.4 mph 16.1 mph N/A   Clear
6:55 PM 87.1 °F - 51.3 °F 29% 29.80 in 10.0 mi SE 9.2 mph - N/A   Clear
7:15 PM 86.0 °F - 52.2 °F 31% 29.80 in 10.0 mi SE 10.4 mph 17.3 mph N/A   Clear
7:35 PM 84.4 °F 82.9 °F 53.8 °F 35% 29.80 in 10.0 mi ESE 11.5 mph 20.7 mph N/A   Clear
7:55 PM 82.2 °F 81.6 °F 55.4 °F 40% 29.81 in 10.0 mi ESE 15.0 mph 20.7 mph N/A   Clear
8:15 PM 80.6 °F 80.5 °F 55.8 °F 42% 29.82 in 10.0 mi ESE 12.7 mph - N/A   Clear
8:35 PM 79.3 °F - 56.3 °F 45% 29.83 in 10.0 mi ESE 13.8 mph 19.6 mph N/A   Clear
8:55 PM 78.1 °F - 56.7 °F 48% 29.84 in 10.0 mi ESE 18.4 mph 25.3 mph N/A   Clear
9:15 PM 76.8 °F - 57.2 °F 51% 29.84 in 10.0 mi ESE 18.4 mph 25.3 mph N/A   Clear
9:35 PM 75.6 °F - 57.2 °F 53% 29.86 in 10.0 mi ESE 17.3 mph 23.0 mph N/A   Clear
9:55 PM 74.7 °F - 57.2 °F 54% 29.87 in 10.0 mi ESE 16.1 mph 19.6 mph N/A   Clear
10:15 PM 73.8 °F - 57.0 °F 56% 29.87 in 10.0 mi SE 13.8 mph 23.0 mph N/A   Clear
10:35 PM 72.5 °F - 57.2 °F 59% 29.88 in 10.0 mi SE 11.5 mph 17.3 mph N/A   Clear
10:55 PM 71.8 °F - 57.4 °F 60% 29.89 in 10.0 mi SE 12.7 mph 21.9 mph N/A   Clear
11:15 PM 71.2 °F - 57.4 °F 61% 29.88 in 10.0 mi SE 12.7 mph 18.4 mph N/A   Clear
11:35 PM 70.5 °F - 57.2 °F 63% 29.88 in 10.0 mi SE 12.7 mph 24.2 mph N/A   Clear
11:55 PM 69.8 °F - 57.2 °F 64% 29.87 in 10.0 mi SE 13.8 mph 21.9 mph N/A   Clear